contact: severine.martini@mio.osupytheas.fr, dominique.lefevre@mio.osupytheas.fr
Project:EMSO Ligure-ouest http://www.emso-fr.org/EMSO-France
Sensor Optode, line 4330 Serial 272 
DOI : "https://doi.org/10.17882/97948" 
Title:EMSO Ligure Ouest : Data BathyDock capteur Optode - deploiement "2023-04-28"
Datetime,Profondeur,Latitude,Longitude,optode_type,serial,O2_concentration,O2_saturation,Temperature,Calibrated_Phase,Temp_Compensated_Phase,phase_blue_light,phase_red_light,Amplitude_blue_light,Amplitude_red_light,thermistor_bridge
time,m,degree_north,degree_east,1,1,umol.l-1,%,degree_C,degree,degree,degree,degree,mV,mV,mV
2024-02-04T00:00:07,2420,42.8014,5.9826,4330,272,186.150,57.022,13.317,36.056,36.636,41.227,4.591,296.3,546.5,291.0
2024-02-04T00:03:07,2420,42.8014,5.9826,4330,272,186.083,57.000,13.317,36.062,36.641,41.232,4.590,296.2,546.5,291.0
2024-02-04T00:06:07,2420,42.8014,5.9826,4330,272,186.242,57.044,13.313,36.053,36.633,41.224,4.591,296.1,546.5,291.1
2024-02-04T00:09:07,2420,42.8014,5.9826,4330,272,186.334,57.072,13.312,36.047,36.627,41.217,4.591,296.2,546.5,291.2
2024-02-04T00:12:07,2420,42.8014,5.9826,4330,272,186.131,57.011,13.313,36.060,36.639,41.234,4.595,296.1,546.5,291.1
2024-02-04T00:15:07,2420,42.8014,5.9826,4330,272,186.446,57.104,13.311,36.040,36.621,41.218,4.598,296.1,546.4,291.2
2024-02-04T00:18:07,2420,42.8014,5.9826,4330,272,186.471,57.111,13.310,36.039,36.619,41.212,4.593,296.1,546.5,291.2
2024-02-04T00:21:08,2420,42.8014,5.9826,4330,272,186.127,57.018,13.320,36.057,36.637,41.227,4.591,296.1,546.4,290.9
2024-02-04T00:24:08,2420,42.8014,5.9826,4330,272,186.274,57.056,13.314,36.050,36.630,41.225,4.595,296.1,546.5,291.1
2024-02-04T00:27:08,2420,42.8014,5.9826,4330,272,186.095,56.996,13.310,36.064,36.643,41.239,4.595,296.2,546.5,291.2
2024-02-04T00:30:07,2420,42.8014,5.9826,4330,272,186.042,56.981,13.311,36.067,36.647,41.237,4.591,296.1,546.5,291.2
2024-02-04T00:33:07,2420,42.8014,5.9826,4330,272,185.942,56.949,13.310,36.073,36.653,41.243,4.590,296.1,546.5,291.2
2024-02-04T00:36:07,2420,42.8014,5.9826,4330,272,186.321,57.068,13.312,36.048,36.628,41.219,4.592,296.1,546.5,291.1
2024-02-04T00:39:08,2420,42.8014,5.9826,4330,272,186.153,57.015,13.311,36.059,36.639,41.226,4.587,296.0,546.4,291.2
2024-02-04T00:42:08,2420,42.8014,5.9826,4330,272,186.340,57.072,13.311,36.047,36.627,41.218,4.591,296.1,546.5,291.2
2024-02-04T00:45:08,2420,42.8014,5.9826,4330,272,186.465,57.110,13.311,36.039,36.619,41.208,4.590,296.2,546.5,291.2
2024-02-04T00:48:08,2420,42.8014,5.9826,4330,272,186.197,57.025,13.309,36.058,36.638,41.225,4.587,296.1,546.5,291.3
2024-02-04T00:51:07,2420,42.8014,5.9826,4330,272,186.496,57.119,13.310,36.037,36.618,41.212,4.594,296.1,546.6,291.2
2024-02-04T00:54:07,2420,42.8014,5.9826,4330,272,186.126,57.003,13.308,36.063,36.643,41.239,4.596,296.1,546.5,291.3
2024-02-04T00:57:07,2420,42.8014,5.9826,4330,272,186.393,57.085,13.309,36.045,36.625,41.216,4.591,296.1,546.5,291.3
2024-02-04T01:00:08,2420,42.8014,5.9826,4330,272,186.416,57.092,13.308,36.044,36.624,41.218,4.595,296.1,546.5,291.3
2024-02-04T01:03:07,2420,42.8014,5.9826,4330,272,186.197,57.028,13.311,36.057,36.637,41.227,4.590,296.1,546.6,291.2
2024-02-04T01:06:07,2420,42.8014,5.9826,4330,272,186.477,57.115,13.312,36.038,36.618,41.208,4.590,296.1,546.5,291.2
2024-02-04T01:09:07,2420,42.8014,5.9826,4330,272,186.292,57.058,13.312,36.050,36.630,41.215,4.585,296.0,546.5,291.2
2024-02-04T01:12:07,2420,42.8014,5.9826,4330,272,186.416,57.098,13.313,36.041,36.621,41.208,4.587,296.1,546.5,291.1
2024-02-04T01:15:07,2420,42.8014,5.9826,4330,272,186.336,57.074,13.314,36.046,36.626,41.218,4.592,296.0,546.4,291.1
2024-02-04T01:18:07,2420,42.8014,5.9826,4330,272,186.308,57.062,13.311,36.050,36.630,41.219,4.590,296.0,546.4,291.2
2024-02-04T01:21:07,2420,42.8014,5.9826,4330,272,186.195,57.029,13.312,36.056,36.636,41.227,4.590,296.1,546.5,291.2
2024-02-04T01:24:08,2420,42.8014,5.9826,4330,272,186.259,57.047,13.311,36.053,36.633,41.223,4.590,296.0,546.5,291.2
2024-02-04T01:27:08,2420,42.8014,5.9826,4330,272,186.393,57.088,13.311,36.044,36.624,41.209,4.585,296.1,546.6,291.2
2024-02-04T01:30:07,2420,42.8014,5.9826,4330,272,186.435,57.102,13.312,36.041,36.621,41.213,4.592,296.1,546.5,291.2
2024-02-04T01:33:07,2420,42.8014,5.9826,4330,272,186.427,57.095,13.308,36.043,36.623,41.216,4.593,296.1,546.6,291.3
2024-02-04T01:36:07,2420,42.8014,5.9826,4330,272,186.148,57.015,13.313,36.059,36.639,41.225,4.587,296.1,546.6,291.1
2024-02-04T01:39:07,2420,42.8014,5.9826,4330,272,186.191,57.031,13.315,36.055,36.635,41.228,4.593,296.0,546.5,291.1
2024-02-04T01:42:07,2420,42.8014,5.9826,4330,272,186.205,57.035,13.314,36.054,36.634,41.226,4.592,296.0,546.5,291.1
2024-02-04T01:45:08,2420,42.8014,5.9826,4330,272,186.262,57.048,13.310,36.052,36.632,41.215,4.583,296.1,546.5,291.2
2024-02-04T01:48:08,2420,42.8014,5.9826,4330,272,186.261,57.049,13.312,36.052,36.632,41.218,4.586,296.0,546.5,291.2
2024-02-04T01:51:08,2420,42.8014,5.9826,4330,272,186.305,57.066,13.314,36.048,36.628,41.219,4.591,296.1,546.5,291.1
2024-02-04T01:54:08,2420,42.8014,5.9826,4330,272,186.339,57.073,13.312,36.047,36.627,41.217,4.590,296.1,546.5,291.2
2024-02-04T01:57:07,2420,42.8014,5.9826,4330,272,186.200,57.031,13.313,36.055,36.635,41.228,4.593,296.1,546.5,291.1
2024-02-04T02:00:08,2420,42.8014,5.9826,4330,272,186.089,56.995,13.311,36.064,36.644,41.231,4.587,296.1,546.4,291.2
2024-02-04T02:03:07,2420,42.8014,5.9826,4330,272,186.306,57.064,13.313,36.048,36.628,41.218,4.590,296.1,546.5,291.1
2024-02-04T02:06:08,2420,42.8014,5.9826,4330,272,186.237,57.046,13.315,36.051,36.631,41.216,4.585,296.2,546.5,291.1
2024-02-04T02:09:08,2420,42.8014,5.9826,4330,272,186.279,57.059,13.315,36.049,36.629,41.219,4.590,296.1,546.5,291.1
2024-02-04T02:12:08,2420,42.8014,5.9826,4330,272,186.381,57.095,13.319,36.041,36.621,41.215,4.595,296.1,546.5,290.9
2024-02-04T02:15:07,2420,42.8014,5.9826,4330,272,186.306,57.071,13.318,36.046,36.626,41.218,4.593,296.0,546.4,291.0
2024-02-04T02:18:07,2420,42.8014,5.9826,4330,272,186.596,57.155,13.315,36.029,36.609,41.203,4.595,296.1,546.5,291.1
2024-02-04T02:21:07,2420,42.8014,5.9826,4330,272,186.292,57.068,13.319,36.046,36.626,41.219,4.593,296.1,546.5,290.9
2024-02-04T02:24:07,2420,42.8014,5.9826,4330,272,186.209,57.040,13.317,36.053,36.633,41.224,4.591,296.1,546.4,291.0
2024-02-04T02:27:07,2420,42.8014,5.9826,4330,272,186.536,57.138,13.316,36.032,36.612,41.210,4.597,296.0,546.5,291.0
2024-02-04T02:30:08,2420,42.8014,5.9826,4330,272,186.378,57.089,13.315,36.042,36.622,41.214,4.592,296.1,546.5,291.1
2024-02-04T02:33:07,2420,42.8014,5.9826,4330,272,186.111,57.013,13.320,36.058,36.638,41.226,4.588,296.1,546.5,290.9
2024-02-04T02:36:07,2420,42.8014,5.9826,4330,272,186.238,57.047,13.316,36.052,36.632,41.227,4.595,296.1,546.5,291.0
2024-02-04T02:39:07,2420,42.8014,5.9826,4330,272,186.038,56.987,13.317,36.064,36.643,41.229,4.586,296.1,546.4,291.0
2024-02-04T02:42:07,2420,42.8014,5.9826,4330,272,186.179,57.029,13.316,36.055,36.635,41.229,4.594,296.1,546.5,291.0
2024-02-04T02:45:07,2420,42.8014,5.9826,4330,272,186.282,57.061,13.316,36.048,36.628,41.220,4.592,296.1,546.5,291.0
2024-02-04T02:48:07,2420,42.8014,5.9826,4330,272,186.416,57.103,13.317,36.039,36.619,41.214,4.595,296.1,546.5,291.0
2024-02-04T02:51:07,2420,42.8014,5.9826,4330,272,186.156,57.024,13.318,36.056,36.636,41.226,4.590,296.1,546.4,291.0
2024-02-04T02:54:07,2420,42.8014,5.9826,4330,272,186.182,57.031,13.317,36.054,36.634,41.223,4.588,296.2,546.5,291.0
2024-02-04T02:57:08,2420,42.8014,5.9826,4330,272,186.521,57.137,13.318,36.032,36.612,41.202,4.590,296.1,546.4,291.0
2024-02-04T03:00:07,2420,42.8014,5.9826,4330,272,186.385,57.098,13.321,36.039,36.619,41.214,4.595,296.1,546.5,290.9
2024-02-04T03:03:07,2420,42.8014,5.9826,4330,272,186.075,57.003,13.320,36.060,36.640,41.229,4.589,296.1,546.5,290.9
2024-02-04T03:06:08,2420,42.8014,5.9826,4330,272,186.275,57.064,13.321,36.047,36.627,41.217,4.590,296.1,546.4,290.9
2024-02-04T03:09:07,2420,42.8014,5.9826,4330,272,186.100,57.009,13.320,36.059,36.639,41.229,4.590,296.2,546.4,290.9
2024-02-04T03:12:07,2420,42.8014,5.9826,4330,272,186.147,57.025,13.321,36.055,36.635,41.222,4.587,296.1,546.5,290.9
2024-02-04T03:15:07,2420,42.8014,5.9826,4330,272,186.186,57.045,13.327,36.050,36.630,41.222,4.593,296.1,546.5,290.7
2024-02-04T03:18:07,2420,42.8014,5.9826,4330,272,185.986,56.977,13.322,36.065,36.645,41.237,4.593,296.1,546.4,290.8
2024-02-04T03:21:07,2420,42.8014,5.9826,4330,272,186.205,57.042,13.320,36.052,36.632,41.220,4.588,296.1,546.4,290.9
2024-02-04T03:24:07,2420,42.8014,5.9826,4330,272,186.209,57.051,13.326,36.048,36.628,41.222,4.594,296.1,546.4,290.7
2024-02-04T03:27:08,2420,42.8014,5.9826,4330,272,186.082,57.008,13.323,36.058,36.638,41.229,4.591,296.1,546.4,290.8
2024-02-04T03:30:08,2420,42.8014,5.9826,4330,272,186.048,56.995,13.321,36.062,36.642,41.227,4.585,296.2,546.5,290.9
2024-02-04T03:33:07,2420,42.8014,5.9826,4330,272,186.126,57.029,13.328,36.052,36.632,41.220,4.588,296.1,546.4,290.6
2024-02-04T03:36:07,2420,42.8014,5.9826,4330,272,186.291,57.070,13.321,36.045,36.625,41.214,4.589,296.2,546.4,290.9
2024-02-04T03:39:07,2420,42.8014,5.9826,4330,272,186.174,57.040,13.325,36.051,36.631,41.219,4.588,296.1,546.4,290.7
2024-02-04T03:42:08,2420,42.8014,5.9826,4330,272,185.961,56.980,13.330,36.063,36.643,41.232,4.589,296.1,546.3,290.6
2024-02-04T03:45:08,2420,42.8014,5.9826,4330,272,186.030,57.010,13.337,36.055,36.634,41.223,4.588,296.1,546.4,290.3
2024-02-04T03:48:08,2420,42.8014,5.9826,4330,272,186.048,57.004,13.328,36.057,36.637,41.226,4.589,296.2,546.3,290.6
2024-02-04T03:51:08,2420,42.8014,5.9826,4330,272,185.923,56.968,13.329,36.066,36.646,41.229,4.584,296.1,546.4,290.6
2024-02-04T03:54:07,2420,42.8014,5.9826,4330,272,185.951,56.981,13.333,36.062,36.642,41.231,4.590,296.2,546.5,290.5
2024-02-04T03:57:07,2420,42.8014,5.9826,4330,272,185.983,56.980,13.325,36.064,36.644,41.229,4.585,296.2,546.5,290.8
2024-02-04T04:00:07,2420,42.8014,5.9826,4330,272,185.891,56.955,13.327,36.068,36.648,41.236,4.588,296.2,546.4,290.7
2024-02-04T04:03:07,2420,42.8014,5.9826,4330,272,185.846,56.943,13.329,36.071,36.651,41.235,4.584,296.2,546.4,290.6
2024-02-04T04:06:07,2420,42.8014,5.9826,4330,272,185.947,56.976,13.330,36.063,36.643,41.236,4.592,296.2,546.4,290.6
2024-02-04T04:09:07,2420,42.8014,5.9826,4330,272,185.910,56.966,13.331,36.065,36.645,41.237,4.592,296.2,546.3,290.5
2024-02-04T04:12:07,2420,42.8014,5.9826,4330,272,186.064,57.020,13.337,36.052,36.632,41.225,4.593,296.2,546.3,290.3
2024-02-04T04:15:07,2420,42.8014,5.9826,4330,272,186.030,57.013,13.339,36.054,36.634,41.219,4.585,296.1,546.4,290.3
2024-02-04T04:18:08,2420,42.8014,5.9826,4330,272,185.762,56.930,13.338,36.072,36.652,41.249,4.598,296.2,546.4,290.3
2024-02-04T04:21:08,2420,42.8014,5.9826,4330,272,185.668,56.900,13.337,36.078,36.658,41.250,4.591,296.3,546.3,290.3
2024-02-04T04:24:08,2420,42.8014,5.9826,4330,272,185.767,56.932,13.339,36.071,36.651,41.238,4.588,296.3,546.3,290.3
2024-02-04T04:27:08,2420,42.8014,5.9826,4330,272,185.915,56.978,13.340,36.061,36.641,41.231,4.590,296.2,546.3,290.3
2024-02-04T04:30:07,2420,42.8014,5.9826,4330,272,185.697,56.915,13.342,36.074,36.653,41.247,4.593,296.2,546.3,290.2
2024-02-04T04:33:07,2420,42.8014,5.9826,4330,272,185.697,56.914,13.342,36.074,36.653,41.244,4.591,296.3,546.3,290.2
2024-02-04T04:36:07,2420,42.8014,5.9826,4330,272,185.738,56.925,13.341,36.072,36.652,41.246,4.594,296.3,546.3,290.2
2024-02-04T04:39:08,2420,42.8014,5.9826,4330,272,185.672,56.904,13.340,36.077,36.657,41.251,4.594,296.3,546.3,290.2
2024-02-04T04:42:08,2420,42.8014,5.9826,4330,272,185.867,56.962,13.338,36.065,36.644,41.237,4.593,296.3,546.4,290.3
2024-02-04T04:45:08,2420,42.8014,5.9826,4330,272,185.656,56.893,13.335,36.080,36.660,41.252,4.592,296.3,546.3,290.4
2024-02-04T04:48:08,2420,42.8014,5.9826,4330,272,185.557,56.863,13.336,36.086,36.666,41.254,4.589,296.4,546.3,290.4
2024-02-04T04:51:08,2420,42.8014,5.9826,4330,272,185.676,56.898,13.334,36.079,36.659,41.250,4.591,296.3,546.3,290.4
2024-02-04T04:54:08,2420,42.8014,5.9826,4330,272,185.719,56.916,13.338,36.075,36.655,41.246,4.591,296.4,546.4,290.3
2024-02-04T04:57:07,2420,42.8014,5.9826,4330,272,185.552,56.866,13.339,36.085,36.665,41.255,4.590,296.4,546.3,290.3
2024-02-04T05:00:07,2420,42.8014,5.9826,4330,272,185.744,56.926,13.340,36.072,36.652,41.245,4.593,296.4,546.3,290.3
2024-02-04T05:03:07,2420,42.8014,5.9826,4330,272,185.764,56.930,13.338,36.072,36.652,41.243,4.592,296.3,546.3,290.3
2024-02-04T05:06:07,2420,42.8014,5.9826,4330,272,185.761,56.924,13.334,36.074,36.653,41.248,4.595,296.3,546.3,290.4
2024-02-04T05:09:07,2420,42.8014,5.9826,4330,272,185.681,56.898,13.333,36.080,36.659,41.249,4.589,296.4,546.3,290.5
2024-02-04T05:12:07,2420,42.8014,5.9826,4330,272,185.678,56.898,13.334,36.079,36.659,41.245,4.586,296.3,546.3,290.4
2024-02-04T05:15:07,2420,42.8014,5.9826,4330,272,185.743,56.919,13.335,36.075,36.655,41.240,4.585,296.3,546.4,290.4
2024-02-04T05:18:07,2420,42.8014,5.9826,4330,272,186.008,57.002,13.336,36.057,36.636,41.227,4.590,296.4,546.3,290.4
2024-02-04T05:21:07,2420,42.8014,5.9826,4330,272,185.826,56.947,13.336,36.068,36.648,41.247,4.599,296.4,546.4,290.4
2024-02-04T05:24:07,2420,42.8014,5.9826,4330,272,185.757,56.920,13.332,36.075,36.655,41.247,4.592,296.3,546.4,290.5
2024-02-04T05:27:08,2420,42.8014,5.9826,4330,272,185.876,56.959,13.334,36.066,36.646,41.240,4.594,296.3,546.4,290.4
2024-02-04T05:30:08,2420,42.8014,5.9826,4330,272,185.920,56.977,13.337,36.062,36.641,41.231,4.590,296.3,546.3,290.3
2024-02-04T05:33:07,2420,42.8014,5.9826,4330,272,185.857,56.960,13.340,36.065,36.645,41.229,4.584,296.3,546.4,290.3
2024-02-04T05:36:07,2420,42.8014,5.9826,4330,272,185.936,56.985,13.340,36.059,36.639,41.230,4.591,296.2,546.3,290.2
2024-02-04T05:39:07,2420,42.8014,5.9826,4330,272,185.966,56.990,13.337,36.059,36.639,41.227,4.588,296.3,546.3,290.3
2024-02-04T05:42:07,2420,42.8014,5.9826,4330,272,185.710,56.909,13.334,36.077,36.657,41.252,4.595,296.3,546.3,290.4
2024-02-04T05:45:07,2420,42.8014,5.9826,4330,272,185.834,56.950,13.337,36.068,36.648,41.237,4.589,296.3,546.3,290.3
2024-02-04T05:48:07,2420,42.8014,5.9826,4330,272,185.853,56.956,13.337,36.066,36.646,41.238,4.592,296.4,546.4,290.3
2024-02-04T05:51:08,2420,42.8014,5.9826,4330,272,185.672,56.905,13.341,36.077,36.656,41.245,4.588,296.3,546.3,290.2
2024-02-04T05:54:08,2420,42.8014,5.9826,4330,272,185.498,56.848,13.338,36.089,36.669,41.258,4.590,296.4,546.4,290.3
2024-02-04T05:57:08,2420,42.8014,5.9826,4330,272,185.756,56.923,13.334,36.074,36.654,41.242,4.589,296.4,546.4,290.4
2024-02-04T06:00:07,2420,42.8014,5.9826,4330,272,185.612,56.876,13.332,36.085,36.664,41.258,4.593,296.4,546.4,290.5
2024-02-04T06:03:07,2420,42.8014,5.9826,4330,272,185.647,56.891,13.336,36.080,36.660,41.253,4.593,296.4,546.3,290.4
2024-02-04T06:06:07,2420,42.8014,5.9826,4330,272,185.809,56.942,13.337,36.069,36.649,41.240,4.591,296.4,546.3,290.4
2024-02-04T06:09:07,2420,42.8014,5.9826,4330,272,185.741,56.918,13.334,36.075,36.655,41.248,4.593,296.4,546.3,290.4
2024-02-04T06:12:08,2420,42.8014,5.9826,4330,272,185.680,56.898,13.334,36.079,36.659,41.250,4.591,296.3,546.3,290.5
2024-02-04T06:15:08,2420,42.8014,5.9826,4330,272,185.685,56.900,13.333,36.079,36.659,41.251,4.592,296.3,546.3,290.5
2024-02-04T06:18:08,2420,42.8014,5.9826,4330,272,185.858,56.953,13.334,36.067,36.647,41.240,4.593,296.3,546.3,290.5
2024-02-04T06:21:08,2420,42.8014,5.9826,4330,272,185.673,56.896,13.333,36.080,36.659,41.250,4.590,296.4,546.4,290.5
2024-02-04T06:24:07,2420,42.8014,5.9826,4330,272,185.779,56.922,13.329,36.075,36.655,41.240,4.585,296.4,546.3,290.6
2024-02-04T06:27:07,2420,42.8014,5.9826,4330,272,185.871,56.949,13.327,36.071,36.650,41.245,4.595,296.5,546.5,290.7
2024-02-04T06:30:07,2420,42.8014,5.9826,4330,272,185.752,56.915,13.329,36.077,36.657,41.248,4.591,296.4,546.4,290.6
2024-02-04T06:33:07,2420,42.8014,5.9826,4330,272,185.794,56.931,13.332,36.073,36.653,41.237,4.585,296.3,546.5,290.5
2024-02-04T06:36:07,2420,42.8014,5.9826,4330,272,185.644,56.894,13.338,36.079,36.659,41.253,4.594,296.4,546.3,290.3
2024-02-04T06:39:07,2420,42.8014,5.9826,4330,272,185.916,56.980,13.341,36.061,36.640,41.231,4.590,296.3,546.3,290.2
2024-02-04T06:42:07,2420,42.8014,5.9826,4330,272,185.522,56.861,13.342,36.086,36.665,41.249,4.584,296.4,546.3,290.2
2024-02-04T06:45:08,2420,42.8014,5.9826,4330,272,185.584,56.877,13.340,36.083,36.662,41.254,4.592,296.3,546.3,290.3
2024-02-04T06:48:08,2420,42.8014,5.9826,4330,272,185.751,56.927,13.339,36.073,36.652,41.248,4.596,296.4,546.3,290.3
2024-02-04T06:51:08,2420,42.8014,5.9826,4330,272,185.615,56.887,13.341,36.080,36.660,41.246,4.586,296.4,546.3,290.2
2024-02-04T06:54:08,2420,42.8014,5.9826,4330,272,185.573,56.877,13.342,36.082,36.661,41.249,4.588,296.3,546.3,290.2
2024-02-04T06:57:07,2420,42.8014,5.9826,4330,272,185.649,56.898,13.341,36.078,36.658,41.248,4.590,296.4,546.3,290.2
2024-02-04T07:00:08,2420,42.8014,5.9826,4330,272,185.691,56.911,13.341,36.075,36.655,41.248,4.593,296.4,546.3,290.2
2024-02-04T07:03:07,2420,42.8014,5.9826,4330,272,185.615,56.883,13.337,36.082,36.662,41.255,4.593,296.3,546.3,290.3
2024-02-04T07:06:07,2420,42.8014,5.9826,4330,272,185.738,56.930,13.345,36.070,36.650,41.237,4.587,296.4,546.3,290.1
2024-02-04T07:09:08,2420,42.8014,5.9826,4330,272,185.892,56.971,13.340,36.062,36.642,41.237,4.595,296.4,546.3,290.3
2024-02-04T07:12:08,2420,42.8014,5.9826,4330,272,185.649,56.899,13.341,36.077,36.657,41.251,4.593,296.4,546.3,290.2
2024-02-04T07:15:08,2420,42.8014,5.9826,4330,272,185.603,56.888,13.344,36.079,36.659,41.249,4.589,296.3,546.3,290.1
2024-02-04T07:18:07,2420,42.8014,5.9826,4330,272,185.503,56.857,13.344,36.086,36.665,41.256,4.591,296.3,546.3,290.1
2024-02-04T07:21:07,2420,42.8014,5.9826,4330,272,185.343,56.800,13.337,36.099,36.679,41.267,4.588,296.4,546.4,290.3
2024-02-04T07:24:07,2420,42.8014,5.9826,4330,272,185.443,56.835,13.341,36.091,36.671,41.261,4.591,296.4,546.4,290.2
2024-02-04T07:27:08,2420,42.8014,5.9826,4330,272,185.629,56.881,13.332,36.084,36.663,41.252,4.589,296.4,546.4,290.5
2024-02-04T07:30:08,2420,42.8014,5.9826,4330,272,185.573,56.868,13.335,36.086,36.665,41.256,4.591,296.4,546.4,290.4
2024-02-04T07:33:07,2420,42.8014,5.9826,4330,272,185.703,56.910,13.337,36.076,36.656,41.243,4.587,296.4,546.3,290.3
2024-02-04T07:36:07,2420,42.8014,5.9826,4330,272,185.726,56.918,13.338,36.074,36.654,41.248,4.594,296.4,546.4,290.3
2024-02-04T07:39:07,2420,42.8014,5.9826,4330,272,185.681,56.901,13.335,36.078,36.658,41.246,4.588,296.3,546.4,290.4
2024-02-04T07:42:07,2420,42.8014,5.9826,4330,272,185.747,56.922,13.336,36.074,36.653,41.245,4.592,296.4,546.4,290.4
2024-02-04T07:45:08,2420,42.8014,5.9826,4330,272,185.680,56.907,13.341,36.076,36.656,41.243,4.587,296.3,546.4,290.2
2024-02-04T07:48:08,2420,42.8014,5.9826,4330,272,185.792,56.929,13.331,36.073,36.653,41.242,4.589,296.4,546.4,290.5
2024-02-04T07:51:08,2420,42.8014,5.9826,4330,272,185.739,56.917,13.334,36.075,36.655,41.250,4.595,296.3,546.4,290.4
2024-02-04T07:54:07,2420,42.8014,5.9826,4330,272,185.760,56.911,13.324,36.079,36.659,41.251,4.592,296.3,546.4,290.8
2024-02-04T07:57:07,2420,42.8014,5.9826,4330,272,185.804,56.920,13.321,36.077,36.657,41.245,4.588,296.4,546.5,290.9
2024-02-04T08:00:07,2420,42.8014,5.9826,4330,272,185.872,56.939,13.319,36.074,36.654,41.247,4.594,296.3,546.5,290.9
2024-02-04T08:03:07,2420,42.8014,5.9826,4330,272,185.981,56.969,13.316,36.068,36.648,41.242,4.594,296.2,546.5,291.0
2024-02-04T08:06:07,2420,42.8014,5.9826,4330,272,185.953,56.965,13.320,36.068,36.648,41.243,4.595,296.3,546.5,290.9
2024-02-04T08:09:08,2420,42.8014,5.9826,4330,272,185.952,56.971,13.325,36.065,36.645,41.239,4.593,296.2,546.4,290.7
2024-02-04T08:12:08,2420,42.8014,5.9826,4330,272,185.882,56.952,13.327,36.069,36.649,41.243,4.593,296.4,546.5,290.7
2024-02-04T08:15:08,2420,42.8014,5.9826,4330,272,185.915,56.970,13.333,36.064,36.644,41.235,4.591,296.4,546.5,290.5
2024-02-04T08:18:07,2420,42.8014,5.9826,4330,272,185.808,56.931,13.328,36.074,36.653,41.245,4.592,296.3,546.5,290.6
2024-02-04T08:21:07,2420,42.8014,5.9826,4330,272,185.800,56.928,13.328,36.074,36.654,41.244,4.590,296.3,546.5,290.6
2024-02-04T08:24:07,2420,42.8014,5.9826,4330,272,185.851,56.950,13.332,36.068,36.648,41.241,4.593,296.4,546.4,290.5
2024-02-04T08:27:07,2420,42.8014,5.9826,4330,272,185.712,56.908,13.334,36.077,36.657,41.254,4.597,296.3,546.4,290.5
2024-02-04T08:30:08,2420,42.8014,5.9826,4330,272,185.817,56.928,13.324,36.075,36.655,41.246,4.591,296.3,546.4,290.8
2024-02-04T08:33:07,2420,42.8014,5.9826,4330,272,185.658,56.900,13.340,36.077,36.657,41.248,4.590,296.3,546.4,290.2
2024-02-04T08:36:07,2420,42.8014,5.9826,4330,272,185.808,56.936,13.332,36.072,36.652,41.237,4.585,296.3,546.4,290.5
2024-02-04T08:39:07,2420,42.8014,5.9826,4330,272,185.865,56.959,13.337,36.066,36.646,41.234,4.588,296.3,546.4,290.3
2024-02-04T08:42:07,2420,42.8014,5.9826,4330,272,185.925,56.978,13.337,36.061,36.641,41.236,4.595,296.3,546.4,290.3
2024-02-04T08:45:08,2420,42.8014,5.9826,4330,272,185.899,56.969,13.336,36.064,36.644,41.233,4.590,296.4,546.4,290.4
2024-02-04T08:48:08,2420,42.8014,5.9826,4330,272,185.610,56.873,13.331,36.085,36.665,41.249,4.584,296.3,546.4,290.6
2024-02-04T08:51:08,2420,42.8014,5.9826,4330,272,185.828,56.939,13.330,36.071,36.651,41.238,4.588,296.4,546.4,290.6
2024-02-04T08:54:07,2420,42.8014,5.9826,4330,272,185.870,56.951,13.329,36.069,36.649,41.239,4.591,296.4,546.4,290.6
2024-02-04T08:57:07,2420,42.8014,5.9826,4330,272,185.926,56.974,13.334,36.063,36.643,41.240,4.597,296.4,546.4,290.5
2024-02-04T09:00:07,2420,42.8014,5.9826,4330,272,185.554,56.865,13.338,36.086,36.665,41.252,4.587,296.3,546.4,290.3
2024-02-04T09:03:07,2420,42.8014,5.9826,4330,272,185.531,56.853,13.333,36.089,36.669,41.263,4.595,296.4,546.4,290.5
2024-02-04T09:06:07,2420,42.8014,5.9826,4330,272,185.712,56.903,13.329,36.080,36.659,41.244,4.585,296.4,546.4,290.6
2024-02-04T09:09:07,2420,42.8014,5.9826,4330,272,185.954,56.981,13.333,36.062,36.642,41.231,4.589,296.3,546.4,290.5
2024-02-04T09:12:08,2420,42.8014,5.9826,4330,272,185.741,56.913,13.330,36.077,36.657,41.245,4.588,296.4,546.5,290.6
2024-02-04T09:15:08,2420,42.8014,5.9826,4330,272,185.764,56.919,13.329,36.076,36.656,41.248,4.592,296.5,546.4,290.6
2024-02-04T09:18:08,2420,42.8014,5.9826,4330,272,185.669,56.891,13.331,36.082,36.662,41.253,4.592,296.3,546.4,290.6
2024-02-04T09:21:07,2420,42.8014,5.9826,4330,272,185.771,56.921,13.329,36.075,36.655,41.249,4.594,296.4,546.4,290.6
2024-02-04T09:24:07,2420,42.8014,5.9826,4330,272,185.530,56.846,13.329,36.092,36.671,41.260,4.588,296.4,546.4,290.6
2024-02-04T09:27:08,2420,42.8014,5.9826,4330,272,185.821,56.934,13.328,36.073,36.652,41.243,4.591,296.3,546.5,290.7
2024-02-04T09:30:08,2420,42.8014,5.9826,4330,272,185.777,56.925,13.331,36.074,36.654,41.240,4.586,296.4,546.4,290.5
2024-02-04T09:33:07,2420,42.8014,5.9826,4330,272,185.646,56.869,13.319,36.089,36.668,41.263,4.594,296.3,546.4,290.9
2024-02-04T09:36:07,2420,42.8014,5.9826,4330,272,185.756,56.898,13.315,36.083,36.663,41.254,4.591,296.4,546.5,291.1
2024-02-04T09:39:07,2420,42.8014,5.9826,4330,272,185.895,56.940,13.314,36.075,36.654,41.241,4.587,296.3,546.5,291.1
2024-02-04T09:42:08,2420,42.8014,5.9826,4330,272,186.016,56.976,13.313,36.067,36.647,41.240,4.593,296.3,546.5,291.1
2024-02-04T09:45:08,2420,42.8014,5.9826,4330,272,186.103,57.006,13.316,36.060,36.640,41.229,4.589,296.2,546.5,291.0
2024-02-04T09:48:08,2420,42.8014,5.9826,4330,272,185.903,56.959,13.327,36.068,36.648,41.239,4.591,296.3,546.4,290.7
2024-02-04T09:51:07,2420,42.8014,5.9826,4330,272,185.999,56.987,13.326,36.062,36.642,41.234,4.592,296.2,546.4,290.7
2024-02-04T09:54:07,2420,42.8014,5.9826,4330,272,186.023,56.979,13.314,36.066,36.646,41.239,4.593,296.3,546.5,291.1
2024-02-04T09:57:07,2420,42.8014,5.9826,4330,272,185.897,56.948,13.320,36.072,36.652,41.247,4.596,296.2,546.4,290.9
2024-02-04T10:00:08,2420,42.8014,5.9826,4330,272,186.105,56.999,13.310,36.063,36.643,41.230,4.588,296.3,546.5,291.2